Weather History for Atlanta Dekalb, GA

Change the Weather History Date:

Thursday, February 13, 2014

  Actual Average Record
Temperature  
Mean Temperature 37 °F 46 °F  
Max Temperature 45 °F 56 °F 66 °F (2009)
Min Temperature 29 °F 36 °F 23 °F (2012)
Degree Days  
Heating Degree Days 28 19  
Month to date heating degree days 309 263  
Since 1 July heating degree days 2399 2136  
Moisture  
Dew Point 28 °F    
Average Humidity 68    
Maximum Humidity 92    
Minimum Humidity 43    
Precipitation  
Precipitation 0.01 in 0.17 in 0.77 in (2000)
Month to date precipitation 2.26 2.17  
Year to date precipitation 5.23 6.97  
Snow  
Snow 0.00 in - - ()
Month to date snowfall 0.0  
Since 1 July snowfall T  
Snow Depth 0.00 in    
Sea Level Pressure  
Sea Level Pressure 29.79 in    
Wind  
Wind Speed 10 mph (WNW)    
Max Wind Speed 23 mph    
Max Gust Speed 35 mph    
Visibility 6 miles    
Events Snow    
T = Trace of Precipitation, MM = Missing Value Source: NWS Daily Summary

Daily Weather History Graph

Daily Weather History Graph

Search for Another Location

Airport:

Trip Planner

Search our weather history database for the weather conditions in past years. The results will help you decide how hot, cold, wet, or windy it might be!

Date:

Astronomy

Feb. 13, 2014 Rise Set
Actual Time 7:23 AM EST 6:19 PM EST
Civil Twilight 6:58 AM EST 6:45 PM EST
Nautical Twilight 6:28 AM EST 7:14 PM EST
Astronomical Twilight 5:59 AM EST 7:43 PM EST
Moon 5:26 PM EST (2/13) 6:15 AM EST (2/13)
Length of Visible Light 11h 47m
Length of Day
10h 55m
Waxing Gibbous, 98% of the Moon is Illuminated
Feb 13
Waxing Gibbous
Feb 14
Full
Feb 22
Last Quarter
Mar 1
New
Mar 8
First Quarter

Hourly Weather History & Observations

Time (EST) Temp. Windchill Dew Point Humidity Pressure Visibility Wind Dir Wind Speed Gust Speed Precip Events Conditions
12:53 AM 28.9 °F 23.9 °F 26.1 °F 89% 29.83 in 2.5 mi NE 4.6 mph - 0.00 in Snow Light Snow
1:05 AM 28.4 °F - 26.6 °F 93% 29.77 in 1.5 mi Calm Calm - 0.00 in Snow Light Snow
1:53 AM 28.9 °F 25.2 °F 27.0 °F 92% 29.81 in 1.8 mi NNW 3.5 mph - 0.00 in Snow Light Snow
2:03 AM 28.4 °F 23.3 °F 26.6 °F 93% 29.75 in 2.0 mi NW 4.6 mph - 0.00 in Snow Light Snow
2:38 AM 28.4 °F 23.3 °F 26.6 °F 93% 29.75 in 1.5 mi NW 4.6 mph - 0.00 in Snow Light Snow
2:53 AM 28.9 °F 23.9 °F 27.0 °F 92% 29.81 in 1.8 mi NW 4.6 mph - 0.00 in Snow Light Snow
2:59 AM 28.4 °F 23.3 °F 26.6 °F 93% 29.75 in 2.0 mi WNW 4.6 mph - 0.00 in Snow Light Snow
3:11 AM 28.4 °F 21.2 °F 26.6 °F 93% 29.74 in 1.8 mi NW 6.9 mph - 0.00 in Snow Light Snow
3:31 AM 30.2 °F 25.4 °F 26.6 °F 86% 29.74 in 2.5 mi West 4.6 mph - 0.00 in Snow Light Snow
3:42 AM 30.2 °F 23.4 °F 26.6 °F 86% 29.74 in 4.0 mi WNW 6.9 mph - 0.00 in Snow Light Snow
3:53 AM 30.0 °F 23.2 °F 27.0 °F 88% 29.80 in 5.0 mi WNW 6.9 mph - 0.00 in   Overcast
4:05 AM 30.2 °F 22.6 °F 26.6 °F 86% 29.73 in 5.0 mi WNW 8.1 mph - N/A   Overcast
4:35 AM 30.2 °F 25.4 °F 28.4 °F 93% 29.72 in 5.0 mi West 4.6 mph - N/A   Overcast
4:53 AM 30.0 °F 24.1 °F 28.0 °F 92% 29.78 in 6.0 mi West 5.8 mph - N/A   Overcast
5:04 AM 30.2 °F 23.4 °F 28.4 °F 93% 29.72 in 6.0 mi WNW 6.9 mph - N/A   Overcast
5:53 AM 30.0 °F 22.4 °F 28.0 °F 92% 29.78 in 3.0 mi WNW 8.1 mph - 0.00 in Snow Light Snow
6:26 AM 30.2 °F 21.9 °F 28.4 °F 93% 29.72 in 2.5 mi WNW 9.2 mph - 0.01 in Snow Light Snow
6:32 AM 30.2 °F 21.3 °F 28.4 °F 93% 29.72 in 3.0 mi WNW 10.4 mph - 0.01 in Snow Light Snow
6:53 AM 30.9 °F 22.8 °F 28.0 °F 89% 29.78 in 4.0 mi West 9.2 mph - 0.01 in Snow Light Snow
7:08 AM 30.2 °F 22.6 °F 28.4 °F 93% 29.72 in 3.0 mi West 8.1 mph - 0.00 in Snow Light Snow
7:16 AM 30.2 °F 23.4 °F 28.4 °F 93% 29.73 in 2.5 mi West 6.9 mph - 0.00 in Snow Light Snow
7:25 AM 30.2 °F 23.4 °F 28.4 °F 93% 29.73 in 3.0 mi West 6.9 mph - 0.00 in Snow Light Snow
7:48 AM 30.2 °F 22.6 °F 28.4 °F 93% 29.73 in 3.0 mi WNW 8.1 mph - 0.00 in Snow Light Snow
7:53 AM 30.9 °F 22.2 °F 28.9 °F 92% 29.80 in 2.5 mi WNW 10.4 mph - 0.00 in Snow Light Snow
8:01 AM 32.0 °F 24.2 °F 28.4 °F 87% 29.74 in 1.5 mi WNW 9.2 mph - 0.00 in Snow Light Snow
8:15 AM 32.0 °F 24.2 °F 28.4 °F 87% 29.74 in 2.0 mi WNW 9.2 mph - 0.00 in Snow Light Snow
8:23 AM 32.0 °F 22.5 °F 28.4 °F 87% 29.74 in 3.0 mi WNW 12.7 mph 20.7 mph 0.00 in Snow Light Snow
8:41 AM 32.0 °F 23.0 °F 28.4 °F 87% 29.75 in 2.5 mi WNW 11.5 mph - 0.00 in Snow Light Snow
8:53 AM 32.0 °F 23.0 °F 28.9 °F 88% 29.80 in 5.0 mi WNW 11.5 mph - 0.00 in Snow Light Snow
9:04 AM 33.8 °F 23.9 °F 28.4 °F 81% 29.75 in 9.0 mi WNW 15.0 mph - N/A   Overcast
9:48 AM 33.8 °F 23.9 °F 30.2 °F 87% 29.75 in 8.0 mi WNW 15.0 mph 21.9 mph N/A   Overcast
9:53 AM 33.1 °F 23.4 °F 30.0 °F 89% 29.81 in 8.0 mi NW 13.8 mph - N/A   Overcast
10:08 AM 33.8 °F 23.9 °F 30.2 °F 87% 29.75 in 9.0 mi WNW 15.0 mph 21.9 mph N/A   Overcast
10:53 AM 34.0 °F 22.7 °F 30.0 °F 85% 29.82 in 8.0 mi WNW 19.6 mph 24.2 mph N/A   Overcast
11:40 AM 35.6 °F 25.9 °F 30.2 °F 81% 29.77 in 9.0 mi WNW 16.1 mph 23.0 mph N/A   Mostly Cloudy
11:53 AM 36.0 °F 27.5 °F 30.0 °F 79% 29.83 in 10.0 mi NW 12.7 mph 24.2 mph N/A   Mostly Cloudy
12:53 PM 37.9 °F 27.3 °F 30.9 °F 76% 29.82 in 10.0 mi NW 21.9 mph 34.5 mph N/A   Overcast
1:53 PM 39.9 °F 30.5 °F 30.9 °F 70% 29.82 in 10.0 mi WNW 19.6 mph 24.2 mph N/A   Mostly Cloudy
2:53 PM 42.1 °F 33.9 °F 30.9 °F 65% 29.81 in 10.0 mi NW 17.3 mph 25.3 mph N/A   Mostly Cloudy
3:53 PM 44.1 °F 36.8 °F 30.0 °F 58% 29.83 in 10.0 mi NW 16.1 mph 21.9 mph N/A   Mostly Cloudy
3:58 PM 44.6 °F 37.8 °F 28.4 °F 53% 29.79 in 10.0 mi NW 15.0 mph - N/A   Scattered Clouds
4:53 PM 44.1 °F 38.6 °F 27.0 °F 51% 29.85 in 10.0 mi WNW 10.4 mph 19.6 mph N/A   Clear
5:53 PM 42.1 °F 35.7 °F 21.0 °F 43% 29.86 in 10.0 mi WNW 11.5 mph 18.4 mph N/A   Clear
6:53 PM 39.0 °F 34.8 °F 21.9 °F 50% 29.88 in 10.0 mi West 5.8 mph - N/A   Clear
7:53 PM 37.9 °F 34.4 °F 23.0 °F 55% 29.90 in 10.0 mi West 4.6 mph - N/A   Clear
8:53 PM 36.0 °F 32.1 °F 24.1 °F 62% 29.90 in 10.0 mi WNW 4.6 mph - N/A   Clear
9:53 PM 36.0 °F 29.6 °F 24.1 °F 62% 29.91 in 10.0 mi West 8.1 mph - N/A   Clear
10:53 PM 35.1 °F 31.0 °F 24.1 °F 64% 29.92 in 10.0 mi West 4.6 mph - N/A   Clear
11:53 PM 34.0 °F 31.0 °F 24.1 °F 67% 29.92 in 10.0 mi West 3.5 mph - N/A   Clear